Date String (YYYY-MM-DD hh:mm:ss) UTC,Instrument flags,absolute air pressure of the measurement (hPa),sample flow rate (lpm),inlet stack bypass flow (lpm),air temperature of the measurement (°C),ambient temperature measured by the external sensor (°C),aerosol sample conditioner tube jacket temperature (°C),OPC LED temperature (°C),internal box temperature (°C),relative humidity of the measurement (%),span deviation,mass concentration of particles derived from Lorenz-Mie calculation of OPC scattering (μg/m³),mass concentration of particles derived from Lorenz-Mie calculation of OPC scattering (μg/m³),mass concentration of particles derived from Lorenz-Mie calculation of OPC scattering (μg/m³)
DateTimeUTC,F1_M11,P_M11,Q1_M11,Q2_M11,T1_M11,T2_M11,T3_M11,T4_M11,T5_M11,U1_M11,ZSPAN_M11,X2_M11,X0_M11,X1_M11
2024-02-17 13:00:00,SystemResetWarning,0835.6,5.01,000.00,018.7,018.7,000.0,027.0,020.5,09.5,0000.0,0006.21,0007.40,0006.14
2024-02-17 13:01:00,SystemResetWarning,0835.6,5.01,000.00,018.6,018.5,000.0,027.0,020.2,09.5,0000.0,0006.23,0007.43,0006.16
2024-02-17 13:02:00,SystemResetWarning,0835.6,5.01,000.00,018.5,018.3,000.0,027.0,020.0,09.5,0000.0,0006.24,0007.44,0006.18
2024-02-17 13:03:00,SystemResetWarning,0835.6,5.00,000.00,018.4,018.1,000.0,027.0,020.0,09.5,0000.0,0006.23,0007.41,0006.18
2024-02-17 13:04:00,SystemResetWarning,0835.6,4.99,000.00,018.4,018.0,000.0,027.0,020.0,09.6,0000.0,0006.24,0007.41,0006.19
2024-02-17 13:05:00,SystemResetWarning,0835.6,4.99,000.00,018.4,017.8,000.0,027.0,020.0,09.7,0000.0,0006.26,0007.43,0006.21
2024-02-17 13:06:00,SystemResetWarning,0835.6,5.00,000.00,018.4,017.7,000.0,027.0,020.0,09.8,0000.0,0006.27,0007.43,0006.22
2024-02-17 13:07:00,SystemResetWarning,0835.6,5.00,000.00,018.3,017.8,000.0,027.1,020.1,09.8,0000.0,0006.28,0007.45,0006.22
2024-02-17 13:08:00,SystemResetWarning,0835.6,5.02,000.00,018.5,018.5,000.0,027.2,020.6,09.7,0000.0,0006.27,0007.46,0006.21
2024-02-17 13:09:00,SystemResetWarning,0835.6,4.99,000.00,018.7,019.2,000.0,027.2,021.0,09.6,0000.0,0006.25,0007.45,0006.19
2024-02-17 13:10:00,SystemResetWarning,0835.6,4.99,000.00,018.8,019.3,000.0,027.2,021.0,09.5,0000.0,0006.23,0007.44,0006.16
2024-02-17 13:11:00,SystemResetWarning,0835.6,5.00,000.00,018.8,019.0,000.0,027.1,020.7,09.5,0000.0,0006.23,0007.45,0006.14
2024-02-17 13:12:00,SystemResetWarning,0835.6,5.01,000.00,018.7,018.8,000.0,027.1,020.4,09.4,0000.0,0006.21,0007.46,0006.12
2024-02-17 13:13:00,SystemResetWarning,0835.5,5.00,000.00,018.6,018.5,000.0,027.0,020.2,09.4,0000.0,0006.20,0007.50,0006.10
2024-02-17 13:14:00,SystemResetWarning,0835.5,4.99,000.00,018.6,018.3,000.0,027.0,020.1,09.5,0000.0,0006.19,0007.51,0006.08
2024-02-17 13:15:00,SystemResetWarning,0835.5,4.99,000.00,018.5,018.1,000.0,027.0,020.0,09.5,0000.0,0006.18,0007.54,0006.07
2024-02-17 13:16:00,SystemResetWarning,0835.6,5.00,000.00,018.4,017.9,000.0,027.0,020.0,09.6,0000.0,0006.17,0007.53,0006.06
2024-02-17 13:17:00,SystemResetWarning,0835.6,5.00,000.00,018.4,017.8,000.0,027.0,020.0,09.6,0000.0,0006.16,0007.53,0006.05
2024-02-17 13:18:00,SystemResetWarning,0835.6,5.01,000.00,018.4,017.7,000.0,027.1,020.0,09.6,0000.0,0006.14,0007.50,0006.04
2024-02-17 13:19:00,SystemResetWarning,0835.6,5.00,000.00,018.4,018.0,000.0,027.1,020.2,09.6,0000.0,0006.13,0007.48,0006.04
2024-02-17 13:20:00,SystemResetWarning,0835.6,5.01,000.00,018.6,018.7,000.0,027.2,020.7,09.5,0000.0,0006.12,0007.47,0006.02
2024-02-17 13:21:00,SystemResetWarning,0835.6,4.99,000.00,018.8,019.3,000.0,027.3,021.1,09.4,0000.0,0006.08,0007.45,0005.99
2024-02-17 13:22:00,SystemResetWarning,0835.6,4.99,000.00,018.8,019.2,000.0,027.2,020.9,09.3,0000.0,0006.05,0007.43,0005.95
2024-02-17 13:23:00,SystemResetWarning,0835.7,5.01,000.00,018.8,018.9,000.0,027.1,020.6,09.3,0000.0,0006.02,0007.39,0005.94
2024-02-17 13:24:00,SystemResetWarning,0835.6,5.00,000.00,018.7,018.7,000.0,027.1,020.3,09.3,0000.0,0006.02,0007.36,0005.94
2024-02-17 13:25:00,SystemResetWarning,0835.6,5.00,000.00,018.6,018.5,000.0,027.1,020.1,09.4,0000.0,0006.02,0007.33,0005.94
2024-02-17 13:26:00,SystemResetWarning,0835.7,4.98,000.00,018.5,018.2,000.0,027.0,020.0,09.4,0000.0,0006.01,0007.30,0005.93
2024-02-17 13:27:00,SystemResetWarning,0835.6,5.00,000.00,018.5,018.0,000.0,027.1,020.0,09.4,0000.0,0006.01,0007.27,0005.93
2024-02-17 13:28:00,SystemResetWarning,0835.6,5.01,000.00,018.5,017.9,000.0,027.1,020.0,09.4,0000.0,0006.00,0007.28,0005.92
2024-02-17 13:29:00,SystemResetWarning,0835.6,5.00,000.00,018.4,017.7,000.0,027.1,020.0,09.4,0000.0,0006.03,0007.34,0005.93
2024-02-17 13:30:00,SystemResetWarning,0835.6,5.00,000.00,018.4,017.6,000.0,027.1,020.0,09.5,0000.0,0006.04,0007.37,0005.93
2024-02-17 13:31:00,SystemResetWarning,0835.6,5.00,000.00,018.4,018.1,000.0,027.2,020.3,09.5,0000.0,0006.06,0007.39,0005.95
2024-02-17 13:32:00,SystemResetWarning,0835.6,5.00,000.00,018.6,018.8,000.0,027.2,020.8,09.4,0000.0,0006.11,0007.44,0005.99
2024-02-17 13:33:00,SystemResetWarning,0835.7,5.00,000.00,018.8,019.2,000.0,027.3,021.1,09.2,0000.0,0006.14,0007.45,0006.03
2024-02-17 13:34:00,SystemResetWarning,0835.6,4.99,000.00,018.8,019.0,000.0,027.2,020.8,09.2,0000.0,0006.15,0007.47,0006.04
2024-02-17 13:35:00,SystemResetWarning,0835.6,5.00,000.00,018.8,018.8,000.0,027.1,020.5,09.2,0000.0,0006.15,0007.51,0006.03
2024-02-17 13:36:00,SystemResetWarning,0835.6,5.00,000.00,018.7,018.5,000.0,027.1,020.2,09.1,0000.0,0006.12,0007.48,0006.01
2024-02-17 13:37:00,SystemResetWarning,0835.7,5.01,000.00,018.6,018.3,000.0,027.0,020.0,09.1,0000.0,0006.10,0007.45,0005.99
2024-02-17 13:38:00,SystemResetWarning,0835.7,5.00,000.00,018.5,018.1,000.0,027.1,020.0,09.2,0000.0,0006.08,0007.43,0005.98
2024-02-17 13:39:00,SystemResetWarning,0835.6,4.99,000.00,018.5,017.9,000.0,027.1,020.0,09.2,0000.0,0006.07,0007.42,0005.98
2024-02-17 13:40:00,SystemResetWarning,0835.6,4.99,000.00,018.4,017.7,000.0,027.1,020.0,09.3,0000.0,0006.08,0007.40,0005.99
2024-02-17 13:41:00,SystemResetWarning,0835.7,5.00,000.00,018.4,017.7,000.0,027.1,020.1,09.3,0000.0,0006.08,0007.41,0005.99
2024-02-17 13:42:00,SystemResetWarning,0835.7,5.02,000.00,018.5,018.3,000.0,027.2,020.5,09.3,0000.0,0006.07,0007.41,0005.98
2024-02-17 13:43:00,SystemResetWarning,0835.8,5.00,000.00,018.7,019.0,000.0,027.3,021.0,09.2,0000.0,0006.05,0007.36,0005.97
2024-02-17 13:44:00,SystemResetWarning,0835.7,4.98,000.00,018.9,019.2,000.0,027.3,020.9,09.1,0000.0,0005.99,0007.31,0005.91
2024-02-17 13:45:00,SystemResetWarning,0835.7,5.00,000.00,018.8,018.9,000.0,027.2,020.5,09.1,0000.0,0005.91,0007.21,0005.84
2024-02-17 13:46:00,SystemResetWarning,0835.6,5.00,000.00,018.7,018.5,000.0,027.1,020.2,09.2,0000.0,0005.85,0007.05,0005.79
2024-02-17 13:47:00,SystemResetWarning,0835.7,5.00,000.00,018.6,018.2,000.0,027.1,020.0,09.2,0000.0,0005.82,0007.06,0005.75
2024-02-17 13:48:00,SystemResetWarning,0835.6,5.00,000.00,018.5,018.0,000.0,027.1,020.0,09.3,0000.0,0005.79,0007.06,0005.72
2024-02-17 13:49:00,SystemResetWarning,0835.6,5.00,000.00,018.5,017.8,000.0,027.2,020.0,09.3,0000.0,0005.76,0007.08,0005.68
2024-02-17 13:50:00,SystemResetWarning,0835.7,5.00,000.00,018.4,017.7,000.0,027.2,020.0,09.3,0000.0,0005.72,0007.03,0005.64
2024-02-17 13:51:00,SystemResetWarning,0835.6,5.01,000.00,018.4,017.6,000.0,027.2,020.1,09.3,0000.0,0005.67,0006.95,0005.59
2024-02-17 13:52:00,SystemResetWarning,0835.7,5.01,000.00,018.5,018.2,000.0,027.2,020.5,09.3,0000.0,0005.62,0006.85,0005.54
2024-02-17 13:53:00,SystemResetWarning,0835.8,5.00,000.00,018.7,018.9,000.0,027.3,020.9,09.2,0000.0,0005.60,0006.82,0005.52
2024-02-17 13:54:00,SystemResetWarning,0835.8,4.99,000.00,018.9,019.3,000.0,027.3,021.1,09.1,0000.0,0005.58,0006.87,0005.50
2024-02-17 13:55:00,SystemResetWarning,0835.7,4.99,000.00,018.8,019.0,000.0,027.2,020.6,09.2,0000.0,0005.62,0006.93,0005.53
2024-02-17 13:56:00,SystemResetWarning,0835.7,5.00,000.00,018.7,018.7,000.0,027.1,020.3,09.2,0000.0,0005.72,0007.06,0005.64
2024-02-17 13:57:00,SystemResetWarning,0835.8,5.01,000.00,018.6,018.4,000.0,027.1,020.0,09.3,0000.0,0005.83,0007.23,0005.74
2024-02-17 13:58:00,SystemResetWarning,0835.8,5.00,000.00,018.5,018.1,000.0,027.1,020.0,09.3,0000.0,0005.95,0007.34,0005.86
2024-02-17 13:59:00,SystemResetWarning,0835.8,5.00,000.00,018.5,017.9,000.0,027.2,020.0,09.3,0000.0,0006.06,0007.40,0005.97
